| time (UTC) | temp F | wind direction | speed MPH | gust MPH | rain 1hr in | rain 24hr in | rain mn in | humidity % | barometer mb |
| 20260906220012 | 94 | 168 | 0.0 | 0.0 | 0.00 | 0.00 | 0.00 | 30 | 1017.0 |
| 20260906215511 | 94 | 139 | 1.0 | 1.0 | 0.00 | 0.00 | 0.00 | 31 | 1017.1 |
| 20260906215009 | 93 | 153 | 1.0 | 1.0 | 0.00 | 0.00 | 0.00 | 32 | 1017.1 |
| 20260906214508 | 92 | 173 | 0.0 | 1.0 | 0.00 | 0.00 | 0.00 | 32 | 1017.1 |
| 20260906214003 | 92 | 162 | 1.0 | 1.0 | 0.00 | 0.00 | 0.00 | 32 | 1017.5 |
| 20260906213457 | 92 | 15 | 2.0 | 3.0 | 0.00 | 0.00 | 0.00 | 32 | 1017.6 |
| 20260906212956 | 92 | 165 | 1.0 | 1.0 | 0.00 | 0.00 | 0.00 | 34 | 1017.8 |
| 20260906212450 | 91 | 181 | 1.0 | 1.0 | 0.00 | 0.00 | 0.00 | 34 | 1017.8 |
| 20260906211945 | 92 | 169 | 1.0 | 2.0 | 0.00 | 0.00 | 0.00 | 33 | 1017.7 |
| 20260906211440 | 92 | 170 | 0.0 | 0.0 | 0.00 | 0.00 | 0.00 | 33 | 1017.9 |
| 20260906210935 | 92 | 134 | 1.0 | 1.0 | 0.00 | 0.00 | 0.00 | 32 | 1017.9 |
| 20260906210431 | 91 | 162 | 0.0 | 1.0 | 0.00 | 0.00 | 0.00 | 36 | 1018.0 |
| 20260906205924 | 92 | 156 | 1.0 | 1.0 | 0.00 | 0.00 | 0.00 | 35 | 1018.0 |
| 20260906205421 | 93 | 163 | 1.0 | 1.0 | 0.00 | 0.00 | 0.00 | 33 | 1018.2 |
| 20260906204917 | 93 | 177 | 1.0 | 1.0 | 0.00 | 0.00 | 0.00 | 34 | 1018.0 |
| 20260906204415 | 91 | 170 | 0.0 | 0.0 | 0.00 | 0.00 | 0.00 | 36 | 1018.3 |
| 20260906203915 | 91 | 132 | 1.0 | 1.0 | 0.00 | 0.00 | 0.00 | 35 | 1018.5 |
| 20260906203410 | 91 | 139 | 1.0 | 2.0 | 0.00 | 0.00 | 0.00 | 34 | 1018.6 |
| 20260906202908 | 92 | 169 | 0.0 | 0.0 | 0.00 | 0.00 | 0.00 | 37 | 1018.7 |
| 20260906202408 | 89 | 146 | 1.0 | 1.0 | 0.00 | 0.00 | 0.00 | 36 | 1018.6 |
| 20260906201907 | 90 | 147 | 1.0 | 1.0 | 0.00 | 0.00 | 0.00 | 39 | 1018.6 |
| 20260906201402 | 89 | 167 | 0.0 | 1.0 | 0.00 | 0.00 | 0.00 | 40 | 1018.7 |
| 20260906200858 | 89 | 116 | 1.0 | 1.0 | 0.00 | 0.00 | 0.00 | 36 | 1019.1 |
| 20260906200354 | 89 | 167 | 1.0 | 2.0 | 0.00 | 0.00 | 0.00 | 37 | 1018.7 |
| 20260906195854 | 89 | 157 | 0.0 | 0.0 | 0.00 | 0.00 | 0.00 | 35 | 1019.1 |
| 20260906195350 | 89 | 199 | 2.0 | 5.0 | 0.00 | 0.00 | 0.00 | 35 | 1019.2 |
| 20260906194846 | 90 | 146 | 1.0 | 2.0 | 0.00 | 0.00 | 0.00 | 35 | 1019.1 |
| 20260906194342 | 87 | 170 | 1.0 | 1.0 | 0.00 | 0.00 | 0.00 | 36 | 1019.1 |
| 20260906193836 | 88 | 170 | 2.0 | 3.0 | 0.00 | 0.00 | 0.00 | 34 | 1019.1 |
| 20260906193332 | 87 | 157 | 2.0 | 2.0 | 0.00 | 0.00 | 0.00 | 32 | 1019.3 |
| 20260906192827 | 88 | 166 | 3.0 | 3.0 | 0.00 | 0.00 | 0.00 | 32 | 1019.6 |
| 20260906192327 | 90 | 185 | 1.0 | 2.0 | 0.00 | 0.00 | 0.00 | 34 | 1019.4 |
| 20260906191827 | 89 | 151 | 0.0 | 0.0 | 0.00 | 0.00 | 0.00 | 38 | 1019.6 |
| 20260906191327 | 88 | 165 | 0.0 | 0.0 | 0.00 | 0.00 | 0.00 | 40 | 1019.7 |
| 20260906190821 | 87 | 168 | 0.0 | 0.0 | 0.00 | 0.00 | 0.00 | 39 | 1019.4 |
| 20260906190321 | 87 | 155 | 1.0 | 1.0 | 0.00 | 0.00 | 0.00 | 39 | 1019.7 |
| 20260906185820 | 89 | 192 | 3.0 | 5.0 | 0.00 | 0.00 | 0.00 | 36 | 1019.8 |
| 20260906185320 | 89 | 142 | 0.0 | 1.0 | 0.00 | 0.00 | 0.00 | 36 | 1019.9 |
| 20260906184814 | 89 | 53 | 1.0 | 2.0 | 0.00 | 0.00 | 0.00 | 36 | 1020.0 |
| 20260906184309 | 88 | 154 | 1.0 | 1.0 | 0.00 | 0.00 | 0.00 | 35 | 1020.1 |
| 20260906183805 | 88 | 179 | 1.0 | 2.0 | 0.00 | 0.00 | 0.00 | 34 | 1020.4 |
| 20260906183301 | 87 | 180 | 1.0 | 1.0 | 0.00 | 0.00 | 0.00 | 36 | 1020.5 |
| 20260906182801 | 86 | 149 | 0.0 | 1.0 | 0.00 | 0.00 | 0.00 | 37 | 1020.1 |
| 20260906182257 | 84 | 169 | 1.0 | 1.0 | 0.00 | 0.00 | 0.00 | 38 | 1020.5 |
| 20260906181752 | 87 | 124 | 3.0 | 3.0 | 0.00 | 0.00 | 0.00 | 38 | 1020.6 |
| 20260906181249 | 87 | 165 | 0.0 | 1.0 | 0.00 | 0.00 | 0.00 | 38 | 1020.7 |
| 20260906180748 | 85 | 155 | 1.0 | 1.0 | 0.00 | 0.00 | 0.00 | 39 | 1020.7 |
| 20260906180244 | 85 | 155 | 0.0 | 0.0 | 0.00 | 0.00 | 0.00 | 42 | 1020.7 |
| 20260906175741 | 86 | 171 | 0.0 | 1.0 | 0.00 | 0.00 | 0.00 | 41 | 1021.1 |
| 20260906175237 | 84 | 157 | 0.0 | 1.0 | 0.00 | 0.00 | 0.00 | 44 | 1021.2 |
| 20260906174735 | 84 | 100 | 2.0 | 2.0 | 0.00 | 0.00 | 0.00 | 42 | 1021.2 |
| 20260906174235 | 83 | 155 | 0.0 | 0.0 | 0.00 | 0.00 | 0.00 | 45 | 1021.2 |
| 20260906173730 | 83 | 220 | 2.0 | 2.0 | 0.00 | 0.00 | 0.00 | 42 | 1021.6 |
| 20260906173226 | 83 | 167 | 1.0 | 1.0 | 0.00 | 0.00 | 0.00 | 43 | 1021.6 |
| 20260906172725 | 83 | 155 | 1.0 | 1.0 | 0.00 | 0.00 | 0.00 | 45 | 1021.7 |
| 20260906172220 | 83 | 147 | 0.0 | 1.0 | 0.00 | 0.00 | 0.00 | 45 | 1021.7 |
| 20260906171721 | 82 | 158 | 0.0 | 0.0 | 0.00 | 0.00 | 0.00 | 48 | 1021.7 |
| 20260906171216 | 84 | 151 | 0.0 | 0.0 | 0.00 | 0.00 | 0.00 | 44 | 1021.8 |
| 20260906170712 | 84 | 140 | 1.0 | 1.0 | 0.00 | 0.00 | 0.00 | 43 | 1022.1 |
| 20260906170212 | 83 | 160 | 0.0 | 1.0 | 0.00 | 0.00 | 0.00 | 47 | 1022.1 |
| 20260906165708 | 82 | 166 | 1.0 | 1.0 | 0.00 | 0.00 | 0.00 | 45 | 1022.4 |
| 20260906165203 | 81 | 158 | 0.0 | 0.0 | 0.00 | 0.00 | 0.00 | 48 | 1022.4 |
| 20260906164702 | 82 | 167 | 1.0 | 1.0 | 0.00 | 0.00 | 0.00 | 47 | 1022.3 |
| 20260906164158 | 83 | 137 | 0.0 | 0.0 | 0.00 | 0.00 | 0.00 | 46 | 1022.4 |
| 20260906163654 | 82 | 176 | 0.0 | 1.0 | 0.00 | 0.00 | 0.00 | 47 | 1022.5 |
| 20260906163150 | 80 | 155 | 0.0 | 0.0 | 0.00 | 0.00 | 0.00 | 50 | 1022.3 |
| 20260906162647 | 79 | 166 | 1.0 | 1.0 | 0.00 | 0.00 | 0.00 | 52 | 1022.4 |
| 20260906162146 | 81 | 81 | 1.0 | 1.0 | 0.00 | 0.00 | 0.00 | 51 | 1022.1 |
| 20260906161641 | 80 | 176 | 0.0 | 0.0 | 0.00 | 0.00 | 0.00 | 52 | 1022.1 |
| 20260906161140 | 78 | 158 | 0.0 | 0.0 | 0.00 | 0.00 | 0.00 | 53 | 1022.3 |
| 20260906160639 | 77 | 175 | 0.0 | 0.0 | 0.00 | 0.00 | 0.00 | 55 | 1022.1 |
| 20260906160138 | 78 | 168 | 1.0 | 1.0 | 0.00 | 0.00 | 0.00 | 53 | 1022.3 |
| 20260906155636 | 78 | 164 | 1.0 | 1.0 | 0.00 | 0.00 | 0.00 | 54 | 1022.3 |
| 20260906155132 | 79 | 139 | 0.0 | 0.0 | 0.00 | 0.00 | 0.00 | 54 | 1022.3 |
| 20260906154627 | 79 | 141 | 0.0 | 1.0 | 0.00 | 0.00 | 0.00 | 54 | 1022.0 |
| 20260906154126 | 78 | 156 | 0.0 | 0.0 | 0.00 | 0.00 | 0.00 | 55 | 1022.3 |
| 20260906153625 | 78 | 160 | 0.0 | 0.0 | 0.00 | 0.00 | 0.00 | 57 | 1022.4 |
| 20260906153120 | 77 | 160 | 0.0 | 1.0 | 0.00 | 0.00 | 0.00 | 55 | 1022.3 |
| 20260906152615 | 78 | 155 | 0.0 | 0.0 | 0.00 | 0.00 | 0.00 | 55 | 1022.4 |
| 20260906152115 | 76 | 158 | 0.0 | 0.0 | 0.00 | 0.00 | 0.00 | 58 | 1022.1 |
| 20260906151610 | 76 | 174 | 1.0 | 2.0 | 0.00 | 0.00 | 0.00 | 58 | 1022.3 |
| 20260906151106 | 76 | 56 | 1.0 | 1.0 | 0.00 | 0.00 | 0.00 | 58 | 1022.4 |
| 20260906150601 | 76 | 145 | 0.0 | 1.0 | 0.00 | 0.00 | 0.00 | 60 | 1022.3 |
| 20260906150056 | 76 | 163 | 0.0 | 0.0 | 0.00 | 0.00 | 0.00 | 60 | 1022.7 |
| 20260906145554 | 75 | 141 | 0.0 | 1.0 | 0.00 | 0.00 | 0.00 | 61 | 1022.5 |
| 20260906145050 | 74 | 188 | 1.0 | 2.0 | 0.00 | 0.00 | 0.00 | 63 | 1022.4 |
| 20260906144544 | 73 | 132 | 0.0 | 0.0 | 0.00 | 0.00 | 0.00 | 65 | 1022.3 |
| 20260906144039 | 73 | 142 | 0.0 | 0.0 | 0.00 | 0.00 | 0.00 | 65 | 1022.4 |
| 20260906143534 | 72 | 116 | 1.0 | 1.0 | 0.00 | 0.00 | 0.00 | 66 | 1022.4 |
| 20260906143032 | 71 | 162 | 0.0 | 0.0 | 0.00 | 0.00 | 0.00 | 68 | 1022.5 |
| 20260906142530 | 71 | 126 | 1.0 | 2.0 | 0.00 | 0.00 | 0.00 | 69 | 1022.4 |
| 20260906142026 | 70 | 153 | 0.0 | 0.0 | 0.00 | 0.00 | 0.00 | 71 | 1022.4 |
| 20260906141525 | 70 | 148 | 1.0 | 1.0 | 0.00 | 0.00 | 0.00 | 70 | 1022.6 |
| 20260906141021 | 71 | 106 | 1.0 | 1.0 | 0.00 | 0.00 | 0.00 | 67 | 1022.5 |
| 20260906140520 | 71 | 151 | 0.0 | 0.0 | 0.00 | 0.00 | 0.00 | 68 | 1022.4 |
| 20260906140020 | 70 | 143 | 0.0 | 0.0 | 0.00 | 0.00 | 0.00 | 69 | 1022.5 |
| 20260906135517 | 69 | 168 | 0.0 | 0.0 | 0.00 | 0.00 | 0.00 | 69 | 1022.5 |
| 20260906135013 | 69 | 163 | 0.0 | 0.0 | 0.00 | 0.00 | 0.00 | 70 | 1022.5 |
| 20260906134508 | 68 | 166 | 0.0 | 1.0 | 0.00 | 0.00 | 0.00 | 70 | 1022.4 |
| 20260906134008 | 68 | 163 | 0.0 | 0.0 | 0.00 | 0.00 | 0.00 | 70 | 1022.3 |
| 20260906133504 | 67 | 150 | 0.0 | 0.0 | 0.00 | 0.00 | 0.00 | 71 | 1022.3 |
| 20260906132959 | 66 | 154 | 0.0 | 0.0 | 0.00 | 0.00 | 0.00 | 73 | 1022.0 |
| 20260906132454 | 65 | 154 | 0.0 | 0.0 | 0.00 | 0.00 | 0.00 | 75 | 1022.3 |
| 20260906131949 | 64 | 161 | 0.0 | 0.0 | 0.00 | 0.00 | 0.00 | 78 | 1022.0 |
| 20260906131445 | 62 | 163 | 0.0 | 1.0 | 0.00 | 0.00 | 0.00 | 82 | 1022.3 |
| 20260906130940 | 61 | 153 | 0.0 | 0.0 | 0.00 | 0.00 | 0.00 | 86 | 1022.1 |
| 20260906130439 | 61 | 157 | 0.0 | 0.0 | 0.00 | 0.00 | 0.00 | 87 | 1022.0 |
| 20260906125934 | 60 | 163 | 0.0 | 0.0 | 0.00 | 0.00 | 0.00 | 89 | 1022.1 |
| 20260906125432 | 60 | 160 | 0.0 | 0.0 | 0.00 | 0.00 | 0.00 | 89 | 1021.9 |
| 20260906124931 | 60 | 169 | 0.0 | 0.0 | 0.00 | 0.00 | 0.00 | 89 | 1022.0 |
| 20260906124428 | 60 | 170 | 0.0 | 0.0 | 0.00 | 0.00 | 0.00 | 89 | 1022.0 |
| 20260906123927 | 60 | 170 | 0.0 | 0.0 | 0.00 | 0.00 | 0.00 | 89 | 1022.0 |
| 20260906123426 | 61 | 170 | 0.0 | 0.0 | 0.00 | 0.00 | 0.00 | 89 | 1022.0 |
| 20260906122921 | 61 | 170 | 0.0 | 0.0 | 0.00 | 0.00 | 0.00 | 88 | 1022.1 |
| 20260906122421 | 62 | 170 | 0.0 | 0.0 | 0.00 | 0.00 | 0.00 | 88 | 1021.9 |
| 20260906121919 | 61 | 169 | 0.0 | 0.0 | 0.00 | 0.00 | 0.00 | 88 | 1021.9 |
| 20260906121414 | 62 | 169 | 0.0 | 0.0 | 0.00 | 0.00 | 0.00 | 87 | 1021.9 |
| 20260906120911 | 61 | 169 | 0.0 | 0.0 | 0.00 | 0.00 | 0.00 | 87 | 1021.8 |
| 20260906120406 | 62 | 169 | 0.0 | 0.0 | 0.00 | 0.00 | 0.00 | 87 | 1022.4 |
| 20260906115902 | 62 | 169 | 0.0 | 0.0 | 0.00 | 0.00 | 0.00 | 87 | 1022.3 |
| 20260906115357 | 62 | 186 | 0.0 | 0.0 | 0.00 | 0.00 | 0.00 | 87 | 1021.9 |
| 20260906114856 | 61 | 166 | 0.0 | 0.0 | 0.00 | 0.00 | 0.00 | 87 | 1021.8 |
| 20260906114352 | 61 | 138 | 0.0 | 0.0 | 0.00 | 0.00 | 0.00 | 87 | 1021.8 |
| 20260906113847 | 62 | 160 | 0.0 | 0.0 | 0.00 | 0.00 | 0.00 | 87 | 1021.9 |
| 20260906113346 | 62 | 162 | 0.0 | 0.0 | 0.00 | 0.00 | 0.00 | 86 | 1021.9 |
| 20260906112842 | 62 | 159 | 0.0 | 0.0 | 0.00 | 0.00 | 0.00 | 85 | 1022.0 |
| 20260906112338 | 63 | 160 | 0.0 | 1.0 | 0.00 | 0.00 | 0.00 | 83 | 1021.9 |
| 20260906111838 | 63 | 153 | 0.0 | 1.0 | 0.00 | 0.00 | 0.00 | 82 | 1021.7 |
| 20260906111337 | 63 | 158 | 0.0 | 0.0 | 0.00 | 0.00 | 0.00 | 80 | 1021.7 |
| 20260906110832 | 64 | 158 | 0.0 | 0.0 | 0.00 | 0.00 | 0.00 | 80 | 1021.8 |
| 20260906110328 | 64 | 156 | 0.0 | 1.0 | 0.00 | 0.00 | 0.00 | 79 | 1021.4 |
| 20260906105827 | 64 | 162 | 0.0 | 0.0 | 0.00 | 0.00 | 0.00 | 78 | 1021.6 |
| 20260906105323 | 64 | 153 | 0.0 | 0.0 | 0.00 | 0.00 | 0.00 | 78 | 1021.6 |
| 20260906104819 | 64 | 155 | 0.0 | 0.0 | 0.00 | 0.00 | 0.00 | 77 | 1021.4 |
| 20260906104317 | 64 | 163 | 0.0 | 0.0 | 0.00 | 0.00 | 0.00 | 75 | 1021.3 |
| 20260906103816 | 64 | 156 | 0.0 | 1.0 | 0.00 | 0.00 | 0.00 | 74 | 1021.4 |
| 20260906103315 | 64 | 46 | 1.0 | 1.0 | 0.00 | 0.00 | 0.00 | 73 | 1021.6 |
| 20260906102811 | 64 | 131 | 1.0 | 1.0 | 0.00 | 0.00 | 0.00 | 73 | 1021.3 |
| 20260906102309 | 64 | 153 | 0.0 | 0.0 | 0.00 | 0.00 | 0.00 | 74 | 1021.7 |
| 20260906101805 | 64 | 153 | 0.0 | 0.0 | 0.00 | 0.00 | 0.00 | 74 | 1021.4 |
| 20260906101300 | 65 | 158 | 0.0 | 0.0 | 0.00 | 0.00 | 0.00 | 71 | 1021.3 |
| 20260906100755 | 65 | 138 | 0.0 | 1.0 | 0.00 | 0.00 | 0.00 | 69 | 1021.4 |
| 20260906100254 | 65 | 96 | 0.0 | 1.0 | 0.00 | 0.00 | 0.00 | 68 | 1021.2 |
| 20260906095750 | 65 | 145 | 0.0 | 0.0 | 0.00 | 0.00 | 0.00 | 66 | 1021.2 |
| 20260906095245 | 66 | 132 | 0.0 | 1.0 | 0.00 | 0.00 | 0.00 | 65 | 1021.7 |
| 20260906094744 | 65 | 143 | 0.0 | 0.0 | 0.00 | 0.00 | 0.00 | 64 | 1021.6 |
| 20260906094239 | 65 | 152 | 0.0 | 0.0 | 0.00 | 0.00 | 0.00 | 63 | 1021.4 |
| 20260906093736 | 65 | 154 | 0.0 | 0.0 | 0.00 | 0.00 | 0.00 | 61 | 1021.4 |
| 20260906093231 | 65 | 138 | 0.0 | 0.0 | 0.00 | 0.00 | 0.00 | 60 | 1021.8 |
| 20260906092727 | 65 | 169 | 1.0 | 1.0 | 0.00 | 0.00 | 0.00 | 60 | 1021.3 |
| 20260906092226 | 65 | 156 | 0.0 | 0.0 | 0.00 | 0.00 | 0.00 | 60 | 1021.2 |
| 20260906091722 | 66 | 156 | 0.0 | 0.0 | 0.00 | 0.00 | 0.00 | 58 | 1021.3 |
| 20260906091218 | 66 | 156 | 0.0 | 0.0 | 0.00 | 0.00 | 0.00 | 57 | 1021.3 |
| 20260906090715 | 67 | 156 | 0.0 | 0.0 | 0.00 | 0.00 | 0.00 | 55 | 1021.2 |
| 20260906090213 | 67 | 156 | 0.0 | 0.0 | 0.00 | 0.00 | 0.00 | 55 | 1021.0 |
| 20260906085713 | 68 | 159 | 0.0 | 0.0 | 0.00 | 0.00 | 0.00 | 54 | 1021.0 |
| 20260906085211 | 69 | 150 | 0.0 | 0.0 | 0.00 | 0.00 | 0.00 | 52 | 1020.9 |
| 20260906084707 | 70 | 155 | 0.0 | 0.0 | 0.00 | 0.00 | 0.00 | 51 | 1021.1 |
| 20260906084207 | 69 | 163 | 0.0 | 1.0 | 0.00 | 0.00 | 0.00 | 51 | 1021.1 |
| 20260906083702 | 69 | 168 | 1.0 | 1.0 | 0.00 | 0.00 | 0.00 | 53 | 1021.1 |
| 20260906083157 | 69 | 150 | 0.0 | 1.0 | 0.00 | 0.00 | 0.00 | 53 | 1021.0 |
| 20260906082652 | 69 | 154 | 0.0 | 0.0 | 0.00 | 0.00 | 0.00 | 55 | 1021.2 |
| 20260906082147 | 68 | 147 | 0.0 | 0.0 | 0.00 | 0.00 | 0.00 | 57 | 1021.1 |
| 20260906081643 | 69 | 147 | 0.0 | 0.0 | 0.00 | 0.00 | 0.00 | 56 | 1021.0 |
| 20260906081138 | 69 | 153 | 0.0 | 1.0 | 0.00 | 0.00 | 0.00 | 55 | 1020.9 |
| 20260906080635 | 69 | 153 | 0.0 | 0.0 | 0.00 | 0.00 | 0.00 | 54 | 1020.7 |
| 20260906080131 | 69 | 153 | 0.0 | 0.0 | 0.00 | 0.00 | 0.00 | 53 | 1020.5 |
| 20260906075630 | 69 | 153 | 0.0 | 0.0 | 0.00 | 0.00 | 0.00 | 53 | 1020.7 |
| 20260906075125 | 69 | 153 | 0.0 | 0.0 | 0.00 | 0.00 | 0.00 | 53 | 1020.3 |
| 20260906074620 | 70 | 152 | 0.0 | 1.0 | 0.00 | 0.00 | 0.00 | 52 | 1020.5 |
| 20260906074119 | 70 | 180 | 0.0 | 0.0 | 0.00 | 0.00 | 0.00 | 53 | 1020.4 |
| 20260906073614 | 70 | 152 | 0.0 | 0.0 | 0.00 | 0.00 | 0.00 | 54 | 1020.3 |
| 20260906073110 | 70 | 153 | 0.0 | 0.0 | 0.00 | 0.00 | 0.00 | 55 | 1020.5 |
| 20260906072604 | 70 | 169 | 0.0 | 1.0 | 0.00 | 0.00 | 0.00 | 55 | 1020.4 |
| 20260906072101 | 70 | 111 | 0.0 | 1.0 | 0.00 | 0.00 | 0.00 | 55 | 1020.5 |
| 20260906071557 | 69 | 150 | 0.0 | 0.0 | 0.00 | 0.00 | 0.00 | 55 | 1020.5 |
| 20260906071057 | 69 | 156 | 0.0 | 0.0 | 0.00 | 0.00 | 0.00 | 55 | 1020.4 |
| 20260906070554 | 69 | 138 | 0.0 | 0.0 | 0.00 | 0.00 | 0.00 | 55 | 1020.5 |
| 20260906070049 | 70 | 168 | 0.0 | 0.0 | 0.00 | 0.00 | 0.00 | 54 | 1020.6 |
| 20260906065548 | 70 | 169 | 0.0 | 0.0 | 0.00 | 0.00 | 0.00 | 53 | 1020.5 |
| 20260906065044 | 71 | 159 | 0.0 | 0.0 | 0.00 | 0.00 | 0.00 | 52 | 1020.5 |
| 20260906064540 | 71 | 155 | 0.0 | 0.0 | 0.00 | 0.00 | 0.00 | 52 | 1020.7 |
| 20260906064034 | 71 | 153 | 0.0 | 0.0 | 0.00 | 0.00 | 0.00 | 51 | 1020.6 |
| 20260906063530 | 72 | 165 | 0.0 | 0.0 | 0.00 | 0.00 | 0.00 | 50 | 1020.5 |
| 20260906063026 | 72 | 156 | 0.0 | 0.0 | 0.00 | 0.00 | 0.00 | 50 | 1021.0 |
| 20260906062521 | 73 | 164 | 0.0 | 0.0 | 0.00 | 0.00 | 0.00 | 49 | 1020.7 |
| 20260906062015 | 74 | 172 | 0.0 | 0.0 | 0.00 | 0.00 | 0.00 | 48 | 1021.0 |
| 20260906061512 | 74 | 165 | 0.0 | 0.0 | 0.00 | 0.00 | 0.00 | 47 | 1020.9 |
| 20260906061010 | 74 | 165 | 1.0 | 2.0 | 0.00 | 0.00 | 0.00 | 47 | 1020.9 |
| 20260906060507 | 74 | 177 | 1.0 | 1.0 | 0.00 | 0.00 | 0.00 | 46 | 1020.9 |
| 20260906060004 | 75 | 172 | 0.0 | 0.0 | 0.00 | 0.00 | 0.00 | 44 | 1021.1 |
| 20260906055459 | 76 | 246 | 1.0 | 1.0 | 0.00 | 0.00 | 0.00 | 44 | 1021.1 |
| 20260906054955 | 75 | 185 | 5.0 | 7.0 | 0.00 | 0.00 | 0.00 | 44 | 1020.9 |
| 20260906054455 | 75 | 175 | 2.0 | 2.0 | 0.00 | 0.00 | 0.00 | 43 | 1021.0 |
| 20260906053950 | 73 | 150 | 0.0 | 0.0 | 0.00 | 0.00 | 0.00 | 45 | 1020.7 |
| 20260906053446 | 73 | 150 | 0.0 | 0.0 | 0.00 | 0.00 | 0.00 | 46 | 1020.9 |
| 20260906052942 | 74 | 169 | 0.0 | 0.0 | 0.00 | 0.00 | 0.00 | 44 | 1021.1 |
| 20260906052438 | 74 | 169 | 0.0 | 0.0 | 0.00 | 0.00 | 0.00 | 44 | 1021.2 |
| 20260906051934 | 74 | 169 | 0.0 | 0.0 | 0.00 | 0.00 | 0.00 | 43 | 1021.3 |
| 20260906051430 | 75 | 169 | 0.0 | 0.0 | 0.00 | 0.00 | 0.00 | 43 | 1021.2 |
| 20260906050925 | 75 | 168 | 0.0 | 0.0 | 0.00 | 0.00 | 0.00 | 43 | 1021.6 |
| 20260906050425 | 75 | 168 | 0.0 | 0.0 | 0.00 | 0.00 | 0.00 | 42 | 1021.7 |
| 20260906045924 | 75 | 169 | 1.0 | 1.0 | 0.00 | 0.00 | 0.00 | 42 | 1021.8 |
| 20260906045423 | 76 | 169 | 0.0 | 0.0 | 0.00 | 0.00 | 0.00 | 41 | 1021.9 |
| 20260906044920 | 76 | 170 | 0.0 | 0.0 | 0.00 | 0.00 | 0.00 | 41 | 1021.6 |
| 20260906044420 | 76 | 161 | 0.0 | 0.0 | 0.00 | 0.00 | 0.00 | 42 | 1021.8 |
| 20260906043915 | 76 | 167 | 1.0 | 1.0 | 0.00 | 0.00 | 0.00 | 42 | 1021.8 |
| 20260906043411 | 75 | 171 | 1.0 | 2.0 | 0.00 | 0.00 | 0.00 | 44 | 1021.6 |
| 20260906042906 | 73 | 152 | 0.0 | 0.0 | 0.00 | 0.00 | 0.00 | 43 | 1021.2 |
| 20260906042405 | 73 | 151 | 0.0 | 0.0 | 0.00 | 0.00 | 0.00 | 44 | 1021.0 |
| 20260906041901 | 73 | 151 | 0.0 | 0.0 | 0.00 | 0.00 | 0.00 | 45 | 1020.6 |
| 20260906041357 | 73 | 151 | 0.0 | 0.0 | 0.00 | 0.00 | 0.00 | 44 | 1020.6 |
| 20260906040856 | 73 | 150 | 0.0 | 0.0 | 0.00 | 0.00 | 0.00 | 43 | 1020.3 |
| 20260906040352 | 73 | 164 | 0.0 | 0.0 | 0.00 | 0.00 | 0.00 | 43 | 1020.4 |
| 20260906035847 | 74 | 164 | 0.0 | 0.0 | 0.00 | 0.00 | 0.00 | 42 | 1020.4 |
| 20260906035342 | 73 | 164 | 0.0 | 0.0 | 0.00 | 0.00 | 0.00 | 41 | 1020.4 |
| 20260906034838 | 73 | 165 | 0.0 | 0.0 | 0.00 | 0.00 | 0.00 | 42 | 1020.4 |
| 20260906034333 | 74 | 164 | 0.0 | 0.0 | 0.00 | 0.00 | 0.00 | 42 | 1020.4 |
| 20260906033829 | 74 | 165 | 0.0 | 0.0 | 0.00 | 0.00 | 0.00 | 41 | 1019.9 |
| 20260906033328 | 74 | 148 | 0.0 | 0.0 | 0.00 | 0.00 | 0.00 | 42 | 1020.0 |
| 20260906032824 | 75 | 147 | 0.0 | 0.0 | 0.00 | 0.00 | 0.00 | 41 | 1020.1 |
| 20260906032320 | 74 | 171 | 0.0 | 0.0 | 0.00 | 0.00 | 0.00 | 41 | 1020.4 |
| 20260906031815 | 73 | 171 | 0.0 | 0.0 | 0.00 | 0.00 | 0.00 | 42 | 1020.1 |
| 20260906031310 | 75 | 171 | 0.0 | 0.0 | 0.00 | 0.00 | 0.00 | 41 | 1020.0 |
| 20260906030810 | 75 | 171 | 0.0 | 0.0 | 0.00 | 0.00 | 0.00 | 40 | 1020.0 |
| 20260906030305 | 77 | 171 | 0.0 | 0.0 | 0.00 | 0.00 | 0.00 | 38 | 1019.4 |
| 20260906025805 | 78 | 172 | 0.0 | 0.0 | 0.00 | 0.00 | 0.00 | 36 | 1019.6 |
| 20260906025259 | 78 | 171 | 0.0 | 0.0 | 0.00 | 0.00 | 0.00 | 35 | 1019.4 |
| 20260906024758 | 78 | 171 | 0.0 | 0.0 | 0.00 | 0.00 | 0.00 | 35 | 1019.3 |
| 20260906024257 | 78 | 171 | 0.0 | 0.0 | 0.00 | 0.00 | 0.00 | 35 | 1018.9 |
| 20260906023753 | 79 | 171 | 0.0 | 0.0 | 0.00 | 0.00 | 0.00 | 34 | 1019.1 |
| 20260906023248 | 79 | 170 | 0.0 | 0.0 | 0.00 | 0.00 | 0.00 | 34 | 1019.0 |
| 20260906022744 | 80 | 160 | 0.0 | 0.0 | 0.00 | 0.00 | 0.00 | 33 | 1019.2 |
| 20260906022239 | 80 | 129 | 0.0 | 0.0 | 0.00 | 0.00 | 0.00 | 33 | 1019.1 |
| 20260906021735 | 80 | 42 | 0.0 | 1.0 | 0.00 | 0.00 | 0.00 | 33 | 1018.7 |
| 20260906021234 | 80 | 61 | 1.0 | 1.0 | 0.00 | 0.00 | 0.00 | 33 | 1019.0 |
| 20260906020729 | 80 | 127 | 0.0 | 1.0 | 0.00 | 0.00 | 0.00 | 33 | 1018.9 |
| 20260906020223 | 80 | 156 | 1.0 | 1.0 | 0.00 | 0.00 | 0.00 | 33 | 1018.9 |
| 20260906015723 | 81 | 163 | 1.0 | 1.0 | 0.00 | 0.00 | 0.00 | 33 | 1018.7 |
| 20260906015222 | 81 | 146 | 0.0 | 1.0 | 0.00 | 0.00 | 0.00 | 33 | 1018.9 |
| 20260906014716 | 81 | 149 | 0.0 | 0.0 | 0.00 | 0.00 | 0.00 | 33 | 1018.7 |
| 20260906014213 | 81 | 161 | 0.0 | 0.0 | 0.00 | 0.00 | 0.00 | 32 | 1018.6 |
| 20260906013708 | 82 | 152 | 0.0 | 0.0 | 0.00 | 0.00 | 0.00 | 31 | 1018.5 |
| 20260906013203 | 82 | 147 | 0.0 | 0.0 | 0.00 | 0.00 | 0.00 | 31 | 1018.7 |
| 20260906012658 | 83 | 43 | 1.0 | 1.0 | 0.00 | 0.00 | 0.00 | 30 | 1018.5 |
| 20260906012157 | 83 | 91 | 1.0 | 2.0 | 0.00 | 0.00 | 0.00 | 30 | 1018.9 |
| 20260906011653 | 83 | 144 | 0.0 | 1.0 | 0.00 | 0.00 | 0.00 | 30 | 1018.7 |
| 20260906011148 | 84 | 107 | 2.0 | 3.0 | 0.00 | 0.00 | 0.00 | 29 | 1018.5 |
| 20260906010643 | 85 | 189 | 0.0 | 1.0 | 0.00 | 0.00 | 0.00 | 29 | 1018.4 |
| 20260906010139 | 85 | 160 | 0.0 | 1.0 | 0.00 | 0.00 | 0.00 | 28 | 1018.6 |
| 20260906005639 | 86 | 65 | 1.0 | 2.0 | 0.00 | 0.00 | 0.00 | 27 | 1018.3 |
| 20260906005138 | 86 | 145 | 1.0 | 2.0 | 0.00 | 0.00 | 0.00 | 26 | 1018.5 |
| 20260906004637 | 87 | 153 | 0.0 | 1.0 | 0.00 | 0.00 | 0.00 | 26 | 1018.4 |
| 20260906004132 | 87 | 142 | 0.0 | 0.0 | 0.00 | 0.00 | 0.00 | 26 | 1018.2 |
| 20260906003627 | 87 | 162 | 0.0 | 0.0 | 0.00 | 0.00 | 0.00 | 26 | 1018.5 |
| 20260906003124 | 88 | 152 | 0.0 | 0.0 | 0.00 | 0.00 | 0.00 | 25 | 1018.6 |
| 20260906002618 | 88 | 156 | 0.0 | 0.0 | 0.00 | 0.00 | 0.00 | 25 | 1018.6 |
| 20260906002113 | 88 | 326 | 1.0 | 1.0 | 0.00 | 0.00 | 0.00 | 25 | 1018.6 |
| 20260906001609 | 88 | 23 | 1.0 | 1.0 | 0.00 | 0.00 | 0.00 | 25 | 1018.5 |
| 20260906001108 | 89 | 151 | 0.0 | 0.0 | 0.00 | 0.00 | 0.00 | 25 | 1018.4 |
| 20260906000605 | 90 | 156 | 0.0 | 0.0 | 0.00 | 0.00 | 0.00 | 24 | 1018.4 |
| 20260906000059 | 92 | 143 | 0.0 | 0.0 | 0.00 | 0.00 | 0.00 | 22 | 1018.4 |
| 20260905235559 | 93 | 180 | 0.0 | 1.0 | 0.00 | 0.00 | 0.00 | 23 | 1018.2 |
| 20260905235054 | 91 | 176 | 1.0 | 1.0 | 0.00 | 0.00 | 0.00 | 23 | 1018.4 |
| 20260905234549 | 89 | 172 | 0.0 | 0.0 | 0.00 | 0.00 | 0.00 | 23 | 1018.4 |
| 20260905234045 | 89 | 163 | 0.0 | 1.0 | 0.00 | 0.00 | 0.00 | 23 | 1018.4 |
| 20260905233544 | 89 | 163 | 0.0 | 0.0 | 0.00 | 0.00 | 0.00 | 22 | 1018.4 |
| 20260905233044 | 90 | 163 | 0.0 | 1.0 | 0.00 | 0.00 | 0.00 | 23 | 1018.3 |
| 20260905232540 | 90 | 179 | 1.0 | 1.0 | 0.00 | 0.00 | 0.00 | 23 | 1018.3 |
| 20260905232035 | 90 | 171 | 1.0 | 1.0 | 0.00 | 0.00 | 0.00 | 23 | 1018.2 |
| 20260905231530 | 90 | 170 | 1.0 | 1.0 | 0.00 | 0.00 | 0.00 | 23 | 1018.4 |
| 20260905231027 | 91 | 141 | 2.0 | 2.0 | 0.00 | 0.00 | 0.00 | 22 | 1018.4 |
| 20260905230526 | 92 | 167 | 0.0 | 1.0 | 0.00 | 0.00 | 0.00 | 23 | 1018.2 |
| 20260905230024 | 92 | 137 | 2.0 | 2.0 | 0.00 | 0.00 | 0.00 | 22 | 1018.2 |
| 20260905225519 | 93 | 160 | 0.0 | 0.0 | 0.00 | 0.00 | 0.00 | 22 | 1018.2 |
| 20260905225015 | 93 | 171 | 1.0 | 1.0 | 0.00 | 0.00 | 0.00 | 22 | 1017.9 |
| 20260905224509 | 93 | 169 | 0.0 | 0.0 | 0.00 | 0.00 | 0.00 | 22 | 1018.3 |
| 20260905224008 | 92 | 158 | 0.0 | 0.0 | 0.00 | 0.00 | 0.00 | 25 | 1018.4 |
| 20260905223506 | 91 | 156 | 0.0 | 0.0 | 0.00 | 0.00 | 0.00 | 23 | 1018.3 |
| 20260905223001 | 92 | 167 | 1.0 | 1.0 | 0.00 | 0.00 | 0.00 | 22 | 1018.2 |
| 20260905222501 | 92 | 146 | 0.0 | 0.0 | 0.00 | 0.00 | 0.00 | 23 | 1018.2 |
| 20260905221956 | 92 | 163 | 1.0 | 2.0 | 0.00 | 0.00 | 0.00 | 23 | 1018.2 |
| 20260905221453 | 92 | 140 | 2.0 | 3.0 | 0.00 | 0.00 | 0.00 | 22 | 1018.4 |
| 20260905220949 | 94 | 177 | 1.0 | 2.0 | 0.00 | 0.00 | 0.00 | 21 | 1018.3 |
| 20260905220445 | 93 | 186 | 3.0 | 5.0 | 0.00 | 0.00 | 0.00 | 21 | 1018.4 |